Погода в Пхитсанулоке

Таиланд     16°49′57″N   100°15′54″E
темп.,
°C
ветер,
м/с
пор.,
м/с
влажн.,
%
обл.,
%
осадки,
мм/ч
давл.,
гПа
погр.,
м
15 мая, сб
сб1501:00+28ю227029 2.1 100531
04:00+27юв477915 1.4 1005184
07:00+27юв36785 1.8 1007239
10:00+33ююв335614 0.0 1008879
13:00+36ююв33455 0.0 10051672
16:00+37ююв234037 0.0 10022297
19:00+33вюв345142 0.0 100261
22:00+32ююв355830 0.0 100598
16 мая, вс
вс1601:00+30ююв41164100 0.2 1005330
04:00+28юв4107418 0.2 1004366
07:00+29юв47725 0.2 1007434
10:00+34ю45565 0.0 10081122
13:00+37ю43445 0.0 10051803
16:00+38юв333857 0.0 10022570
19:00+34вюв344723 0.0 100360
22:00+32ююв355628 0.0 1005113
17 мая, пн
пн1701:00+30ю24636 0.3 100586
04:00+29юв387018 0.0 1005282
07:00+29юв48725 0.2 1007371
10:00+34ю44555 0.0 10081092
13:00+38ююв334296 0.0 10052247
16:00+37ю444364 0.1 10021033
19:00+33ююв365399 0.1 1003144
22:00+32ююв355934 0.0 1005129
18 мая, вт
вт1801:00+30юв3764100 0.4 1005233
04:00+29ююв4870100 0.0 1005320
07:00+29юв4872100 0.0 1006441
10:00+33ююв445788 0.0 10081011
13:00+37ююв4444100 0.1 10052222
16:00+33в4659100 0.1 1003246
19:00+31в356437 0.1 1002107
22:00+31ююв346277 0.1 1005102
19 мая, ср
ср1901:00+29ююв4106817 0.9 1005363
04:00+28юв387077 0.0 1004268
07:00+28ююв387640 0.9 1007390
10:00+33ю445988 0.0 10081104
13:00+37ююв3345100 0.0 10052301
16:00+37всв224191 0.2 10021328
19:00+33юв355789 0.2 1002121
22:00+31юз246389 0.8 1005112